JTD511 EKBI-GCFV

Flight info

Callsign JTD511
Flight time N/A
Altitude 34000
Route BAMPI DCT UPGAS DCT TIPAN N866 DIGSU DCT IBNID/N0443F350 M195 LORKU DCT POZOF DCT BALDA DCT ABUPI DCT TAKAV/N0445F370 DCT VEDOD UN857 TERTO
Aircraft B738/M-SDE2E3FGHIRWXY/LB1

Departure

Time 2025-12-29 16:29
Airport Billund Airport (EKBI)

Arrival

Time N/A
Airport Fuerteventura Airport (GCFV)
Time Latitude Longitude Altitude Speed Heading
2025-12-29 16:01 55.74537 9.15012 215 ft 0 kts 357°
2025-12-29 16:17 55.74530 9.15013 215 ft 2 kts 357°
2025-12-29 16:17 55.74490 9.15016 216 ft 3 kts 357°
2025-12-29 16:17 55.74471 9.15020 215 ft 3 kts 334°
2025-12-29 16:18 55.74458 9.15085 215 ft 1 kts 266°
2025-12-29 16:22 55.74457 9.15060 218 ft 5 kts 266°
2025-12-29 16:23 55.74372 9.14983 223 ft 11 kts 177°
2025-12-29 16:23 55.74200 9.15071 215 ft 16 kts 99°
2025-12-29 16:24 55.74211 9.15518 215 ft 21 kts 86°
2025-12-29 16:24 55.74225 9.15973 219 ft 24 kts 86°
2025-12-29 16:25 55.74244 9.16574 215 ft 25 kts 87°
2025-12-29 16:25 55.74264 9.17227 215 ft 28 kts 87°
2025-12-29 16:25 55.74275 9.17582 215 ft 30 kts 86°
2025-12-29 16:26 55.74136 9.18116 215 ft 10 kts 234°
2025-12-29 16:27 55.74120 9.17966 222 ft 0 kts 267°
2025-12-29 16:28 55.74114 9.17749 215 ft 48 kts 267°
2025-12-29 16:28 55.74027 9.14986 267 ft 163 kts 269°
2025-12-29 16:29 55.74222 9.10980 1567 ft 173 kts 308°
2025-12-29 16:29 55.75939 9.07430 2348 ft 209 kts 312°
2025-12-29 16:29 55.76863 9.05403 2919 ft 215 kts 311°
2025-12-29 16:30 55.79608 8.98105 4423 ft 259 kts 280°
2025-12-29 16:31 55.79799 8.91908 6079 ft 255 kts 277°
2025-12-29 16:31 55.80060 8.85636 7769 ft 247 kts 279°
2025-12-29 16:32 55.80417 8.79461 9344 ft 253 kts 280°
2025-12-29 16:32 55.80735 8.73383 11086 ft 248 kts 280°
2025-12-29 16:33 55.81078 8.66797 11562 ft 289 kts 280°
2025-12-29 16:33 55.81643 8.59619 12123 ft 320 kts 282°
2025-12-29 16:33 55.81978 8.55670 12780 ft 325 kts 282°
2025-12-29 16:34 55.82970 8.43638 14858 ft 332 kts 283°
2025-12-29 16:35 55.83629 8.35453 16103 ft 337 kts 283°
2025-12-29 16:35 55.84155 8.27802 17222 ft 347 kts 276°
2025-12-29 16:36 55.83109 8.19135 18393 ft 367 kts 261°
2025-12-29 16:36 55.81588 8.10371 19394 ft 374 kts 261°
2025-12-29 16:37 55.80038 8.01488 20396 ft 379 kts 261°
2025-12-29 16:37 55.78486 7.92482 21360 ft 384 kts 261°
2025-12-29 16:37 55.77704 7.87916 21837 ft 387 kts 261°
2025-12-29 16:38 55.75324 7.74044 23178 ft 396 kts 261°
2025-12-29 16:39 55.73703 7.64646 23981 ft 401 kts 261°
2025-12-29 16:39 55.72051 7.55126 24725 ft 405 kts 260°
2025-12-29 16:41 55.66951 7.26031 26750 ft 418 kts 259°
2025-12-29 16:43 55.59797 6.85984 29095 ft 434 kts 259°
2025-12-29 16:45 55.52456 6.45803 31973 ft 424 kts 258°
2025-12-29 16:47 55.45169 6.06718 34364 ft 415 kts 258°
2025-12-29 16:49 55.37875 5.68384 35963 ft 413 kts 257°
2025-12-29 16:51 55.30475 5.30260 36290 ft 410 kts 256°
2025-12-29 16:52 55.22469 4.98556 36296 ft 428 kts 227°
2025-12-29 16:55 54.98226 4.75355 36318 ft 447 kts 213°
2025-12-29 16:57 54.76273 4.55007 36320 ft 445 kts 212°
2025-12-29 16:59 54.54518 4.35089 36331 ft 440 kts 212°
2025-12-29 17:01 54.32918 4.15536 36330 ft 438 kts 211°
2025-12-29 17:03 54.11009 3.95928 36342 ft 444 kts 210°
2025-12-29 17:05 53.89430 3.76868 36354 ft 435 kts 210°
2025-12-29 17:07 53.67789 3.57997 36354 ft 440 kts 210°
2025-12-29 17:09 53.52305 3.44575 36358 ft 442 kts 210°
2025-12-29 17:11 53.31326 3.26565 36356 ft 441 kts 209°
2025-12-29 17:13 53.09515 3.08122 36360 ft 438 kts 209°
2025-12-29 17:15 52.87767 2.89952 37340 ft 435 kts 209°
2025-12-29 17:17 52.70695 2.64286 37364 ft 420 kts 244°
2025-12-29 17:19 52.59794 2.30100 37367 ft 424 kts 243°
2025-12-29 17:20 52.50000 2.00045 37376 ft 428 kts 243°
2025-12-29 17:23 52.35835 1.57197 37384 ft 427 kts 242°
2025-12-29 17:25 52.25574 1.27836 37391 ft 424 kts 240°
2025-12-29 17:27 52.12215 0.90560 37378 ft 424 kts 239°
2025-12-29 17:29 52.02173 0.63216 37384 ft 426 kts 233°
2025-12-29 17:31 51.85806 0.35443 37409 ft 426 kts 226°
2025-12-29 17:33 51.69377 0.07955 37423 ft 425 kts 226°
2025-12-29 17:35 51.50815 -0.22738 37416 ft 423 kts 227°
2025-12-29 17:37 51.36524 -0.46110 37435 ft 417 kts 226°
2025-12-29 17:39 51.18068 -0.75969 37415 ft 423 kts 226°
2025-12-29 17:41 51.03451 -0.99360 37399 ft 428 kts 225°
2025-12-29 17:43 50.84530 -1.29315 37396 ft 426 kts 225°
2025-12-29 17:45 50.69819 -1.52357 37408 ft 423 kts 224°
2025-12-29 17:47 50.50739 -1.80963 37401 ft 420 kts 212°
2025-12-29 17:49 50.33501 -1.98239 37376 ft 421 kts 212°
2025-12-29 17:51 50.11207 -2.20252 37361 ft 422 kts 211°
2025-12-29 17:53 49.93774 -2.37087 37334 ft 422 kts 207°
2025-12-29 17:55 49.69725 -2.53882 37328 ft 422 kts 202°
2025-12-29 17:57 49.51858 -2.66230 37323 ft 422 kts 202°
2025-12-29 17:59 49.27799 -2.82697 37319 ft 421 kts 202°
2025-12-29 18:01 49.09118 -2.95363 37308 ft 419 kts 201°
2025-12-29 18:03 48.85176 -3.11444 37299 ft 417 kts 201°
2025-12-29 18:05 48.66572 -3.23823 37297 ft 417 kts 201°
2025-12-29 18:07 48.42573 -3.39645 37299 ft 419 kts 200°
2025-12-29 18:09 48.23821 -3.51894 37285 ft 421 kts 200°
2025-12-29 18:10 48.04995 -3.64093 37275 ft 422 kts 200°
2025-12-29 18:13 47.80709 -3.79688 37267 ft 424 kts 200°
2025-12-29 18:15 47.56249 -3.95234 37265 ft 426 kts 200°
2025-12-29 18:17 47.37111 -4.07288 37263 ft 428 kts 200°
2025-12-29 18:19 47.12346 -4.22748 37258 ft 431 kts 200°
2025-12-29 18:21 46.92851 -4.33921 37258 ft 431 kts 197°
2025-12-29 18:23 46.67513 -4.47683 37250 ft 433 kts 197°
2025-12-29 18:25 46.47726 -4.58368 37249 ft 435 kts 197°